FW8055 Weather Reports


time (UTC)temp
F
wind
direction
speed
knots
gust
knots
rain 1hr
in
rain 24hr
in
rain mn
in
humidity
%
barometer
mb
20260506091547 50 0 0.0 0.0 0.00 0.00 0.00 93 1018.6
20260506090048 50 0 0.0 0.0 0.00 0.00 0.00 92 1018.4
20260506084548 50 0 0.0 0.0 0.00 0.00 0.00 92 1018.4
20260506083045 51 0 0.0 0.0 0.00 0.00 0.00 92 1018.4
20260506081552 51 0 0.0 0.0 0.00 0.00 0.00 92 1018.4
20260506073048 52 0 0.0 0.0 0.00 0.00 0.00 91 1018.4
20260506071551 52 0 0.0 0.0 0.00 0.00 0.00 91 1018.3
20260506070105 52 0 0.0 0.0 0.00 0.00 0.00 91 1018.0
20260506061549 54 0 0.0 0.0 0.00 0.00 0.00 90 1017.8
20260506044558 57 0 0.0 0.0 0.00 0.00 0.00 86 1016.7
20260506043047 58 0 0.0 0.0 0.00 0.00 0.00 84 1016.6
20260506041548 59 0 0.0 0.0 0.00 0.00 0.00 83 1016.6
20260506040044 60 0 0.0 0.0 0.00 0.00 0.00 81 1016.4
20260506034543 61 0 0.0 0.0 0.00 0.00 0.00 78 1016.1
20260506033043 62 0 0.0 0.0 0.00 0.00 0.00 76 1015.9
20260506031558 63 251 0.0 1.7 0.00 0.00 0.00 74 1015.8
20260506030108 64 0 0.0 0.9 0.00 0.00 0.00 73 1015.8
20260506024633 65 0 0.0 2.6 0.00 0.00 0.00 71 1015.6
20260506024544 65 0 0.0 2.6 0.00 0.00 0.00 71 1015.6
20260506023056 66 360 0.9 3.5 0.00 0.00 0.00 69 1015.5
20260506021543 66 0 0.0 1.7 0.00 0.00 0.00 68 1015.4
20260506020048 66 5 0.9 2.6 0.00 0.00 0.00 67 1015.4
20260506014600 67 0 0.0 3.5 0.00 0.00 0.00 68 1015.2
20260506013050 67 5 0.9 3.5 0.00 0.00 0.00 68 1015.3
20260506011543 67 61 0.9 3.5 0.00 0.00 0.00 67 1015.3
20260506010040 67 333 0.9 5.2 0.00 0.00 0.00 67 1015.2
20260506004620 66 315 0.9 7.0 0.00 0.00 0.00 67 1015.2
20260506003045 66 352 0.9 7.0 0.00 0.00 0.00 66 1015.3
20260506001540 66 17 0.9 7.0 0.00 0.00 0.00 66 1015.3
20260506000047 66 15 0.0 5.2 0.00 0.00 0.00 66 1015.3
20260505234606 66 349 0.9 4.3 0.00 0.00 0.00 65 1015.5
20260505233040 66 0 0.9 5.2 0.00 0.00 0.00 66 1015.5
20260505231543 65 0 0.9 3.5 0.00 0.00 0.00 66 1015.8
20260505230045 66 28 1.7 5.2 0.00 0.00 0.00 66 1015.9
20260505224546 66 355 0.9 4.3 0.00 0.00 0.00 64 1016.0
20260505223057 65 0 0.0 2.6 0.00 0.00 0.00 67 1016.2
20260505221556 64 31 0.9 5.2 0.00 0.00 0.00 67 1016.3
20260505220059 65 338 0.9 4.3 0.00 0.00 0.00 66 1016.4
20260505214559 65 248 0.0 4.3 0.00 0.00 0.00 68 1016.6
20260505213049 63 0 0.0 1.7 0.00 0.00 0.00 70 1016.5
20260505211549 63 62 0.0 3.5 0.00 0.00 0.00 69 1016.6
20260505210046 62 0 0.9 4.3 0.00 0.00 0.00 70 1016.7
20260505204550 62 342 1.7 4.3 0.00 0.00 0.00 69 1016.7
20260505203047 61 0 0.9 3.5 0.00 0.00 0.00 72 1016.8
20260505201545 61 13 0.9 4.3 0.00 0.00 0.00 71 1016.9
20260505200053 61 340 1.7 4.3 0.00 0.00 0.00 71 1016.9
20260505194543 60 0 0.0 2.6 0.00 0.00 0.00 72 1017.0
20260505193046 60 24 0.0 2.6 0.00 0.00 0.00 73 1017.1
20260505191543 60 0 0.0 2.6 0.00 0.00 0.00 74 1017.0
20260505190051 59 23 0.0 2.6 0.00 0.00 0.00 75 1017.0
20260505184549 59 81 0.9 2.6 0.00 0.00 0.00 75 1017.0
20260505183050 59 0 0.0 2.6 0.00 0.00 0.00 74 1017.0
20260505181546 58 0 0.0 1.7 0.00 0.00 0.00 77 1016.8
20260505180045 58 0 0.0 1.7 0.00 0.00 0.00 77 1016.8
20260505174552 57 22 0.9 2.6 0.00 0.00 0.00 77 1016.8
20260505173051 57 60 0.0 2.6 0.00 0.00 0.00 76 1016.7
20260505171546 57 113 0.0 1.7 0.00 0.00 0.00 77 1016.6
20260505170046 57 22 0.0 1.7 0.00 0.00 0.00 78 1016.7
20260505164546 57 0 0.0 1.7 0.00 0.00 0.00 79 1016.7
20260505163046 56 0 0.0 1.7 0.00 0.00 0.00 79 1016.8
20260505161545 56 0 0.0 2.6 0.00 0.00 0.00 78 1016.7
20260505153049 55 0 0.0 0.9 0.00 0.00 0.00 81 1016.8
20260505151546 55 0 0.0 3.5 0.00 0.00 0.00 82 1016.7
20260505124557 54 0 0.0 0.0 0.00 0.00 0.00 85 1015.9
20260505123045 54 0 0.0 0.0 0.00 0.00 0.00 85 1015.8
20260505121544 54 0 0.0 0.0 0.00 0.00 0.00 85 1015.6
20260505120052 54 0 0.0 1.7 0.00 0.00 0.00 86 1015.6
20260505114548 54 0 0.0 0.9 0.00 0.00 0.00 86 1015.6
20260505113041 54 0 0.0 0.0 0.00 0.00 0.00 86 1015.8
20260505111547 54 0 0.0 0.9 0.00 0.00 0.00 86 1015.7
20260505101547 54 0 0.0 1.7 0.00 0.00 0.00 87 1015.4
20260505100047 54 0 0.0 0.0 0.00 0.00 0.00 88 1015.4
20260505094544 54 0 0.0 1.7 0.00 0.00 0.00 87 1015.3
20260505093043 54 0 0.0 1.7 0.00 0.00 0.00 88 1015.2